Location: Ashton River Estates
(39.1762°N, 77.0261°W)
Time: 00:24:36
(UTC+00:00)

Timation 2 Rocket - Pass Details

Date: 29 October 2020
Orbit: 904 x 1077 km, 70.0° (Epoch: 03 December)

Event Time Altitude Azimuth Distance (km) Brightness Sun altitude
Rises 22:47:32 0° 335° (NNW) 3,765 7.3 -7.9°
Reaches altitude 10° 22:50:05 10° 335° (NNW) 2,834 6.6 -8.4°
Maximum altitude 22:56:47 88° 250° (WSW) 1,063 4.2 -9.6°
Drops below altitude 10° 23:03:39 10° 159° (SSE) 2,898 6.4 -11.0°
Sets 23:06:17 0° 159° (SSE) 3,856 7.0 -11.5°
